Погода в Йорктоне

Канада     51°12′34″N   102°27′46″W
темп.,
°C
ветер,
м/с
пор.,
м/с
влажн.,
%
обл.,
%
осадки,
мм/ч
давл.,
гПа
погр.,
м
12 августа, пт
пт1200:00+15ююв3794100 0.9 1018188
03:00+15ююв3987100 0.0 1016214
06:00+12ю238659 0.0 101734
09:00+19ююв336472 0.0 1016314
12:00+24ююв22460 0.0 1015941
15:00+27ююз11415 0.0 10141296
18:00+27юв11430 0.0 10141232
21:00+21юв33630 0.0 101431
13 августа, сб
сб1300:00+18ю3471100 0.0 101548
03:00+17ю3579100 0.0 101572
06:00+17ююз228399 0.0 101527
09:00+23ююв23595 0.0 1014317
12:00+28ю56465 0.0 10131175
15:00+30ююз55394 0.0 10121501
18:00+30ююв35431 0.0 1010956
21:00+20всв2279100 1.3 101229
14 августа, вс
вс1400:00+18с3592100 3.8 101390
03:00+17юв37961 0.4 1011135
06:00+16юв22942 0.4 101026
09:00+21всв22733 0.0 1011378
12:00+27в55535 0.0 1010844
15:00+29вюв55441 0.0 10091486
18:00+29вюв444718 0.0 10081432
21:00+22в613800 0.4 1010364
15 августа, пн
пн1500:00+18всв5109671 4.0 1011370
03:00+17в61094100 2.7 1011398
06:00+17вюв4693100 2.9 1011423
09:00+17св4593100 0.8 1012455
12:00+18св3488100 1.1 1014537
15:00+20ссв3482100 0.1 1014627
18:00+22ссв237249 0.3 1014902
21:00+18всв22844 0.1 101522
16 августа, вт
вт1600:00+16всв11900 0.1 101511
03:00+15св11911 0.0 101511
06:00+14сз11930 0.0 101611
09:00+20ссз11720 0.0 1016365
12:00+24ссв22540 0.0 10151024
15:00+27ссв114548 0.0 10141657
18:00+26ссв11466 0.0 10141656
21:00+20в337227 0.0 101530